Total_Precipitation_Accumulation
0.00 0.00 0.00 0.00 0.00 0.00 0.00 0.00 0.00 0.00 0.00 0.00 0.00 0.00 0.00 0.00 0.00 0.00 0.00 0.00 0.00 0.00 0.00 0.01 0.00 0.00 0.00 0.04 0.00 0.00 0.02 0.08 0.12 0.12 0.18 0.25 0.25 0.29 0.54 0.67 0.67 0.85 1.22 1.11 1.03 1.03 1.00 0.98 0.76 0.76 0.39 0.29 0.19 0.19 0.20 0.21 0.21 0.19 0.08 0.01 0.01 0.00 0.00 0.00 0.00 0.00 0.00 0.00 0.00 0.00 0.00 0.00 0.00 0.00 0.00 0.04 0.04 0.01 0.00 0.00 0.00 0.00 0.00 0.01 0.04 0.04 0.06 0.13 0.00 0.00 0.01 0.00 0.00 0.00 0.00 0.03 0.03 0.03 0.01 0.00 0.00 0.00 0.00
0.00 0.00 0.00 0.00 0.00 0.00 0.00 0.00 0.00 0.00 0.00 0.00 0.00 0.00 0.00 0.00 0.00 0.00 0.00 0.00 0.00 0.00 0.00 0.01 0.01 0.01 0.01 0.02 0.00 0.00 0.04 0.09 0.11 0.11 0.20 0.26 0.26 0.32 0.33 0.65 0.65 0.82 0.98 0.78 1.04 1.04 1.08 0.90 0.77 0.77 0.46 0.32 0.15 0.15 0.16 0.11 0.11 0.13 0.13 0.06 0.06 0.00 0.00 0.00 0.00 0.00 0.00 0.00 0.00 0.00 0.00 0.00 0.00 0.00 0.01 0.04 0.04 0.01 0.00 0.00 0.00 0.00 0.00 0.02 0.04 0.04 0.06 0.14 0.02 0.02 0.01 0.03 0.00 0.00 0.00 0.01 0.01 0.02 0.00 0.00 0.00 0.00 0.00
0.00 0.00 0.00 0.00 0.00 0.00 0.00 0.00 0.00 0.00 0.00 0.00 0.00 0.00 0.00 0.00 0.00 0.00 0.00 0.00 0.00 0.00 0.00 0.01 0.01 0.01 0.01 0.01 0.01 0.01 0.00 0.09 0.13 0.13 0.22 0.29 0.29 0.44 0.43 0.74 0.74 0.79 0.73 0.71 1.00 1.00 1.04 1.08 0.73 0.73 0.60 0.39 0.24 0.24 0.10 0.05 0.05 0.13 0.08 0.04 0.04 0.00 0.00 0.08 0.04 0.04 0.03 0.00 0.00 0.00 0.00 0.00 0.00 0.00 0.00 0.04 0.04 0.02 0.00 0.00 0.00 0.00 0.00 0.00 0.04 0.04 0.06 0.15 0.02 0.02 0.00 0.00 0.00 0.00 0.00 0.01 0.01 0.01 0.00 0.00 0.00 0.00 0.00
0.00 0.00 0.00 0.00 0.00 0.00 0.00 0.00 0.00 0.00 0.00 0.00 0.00 0.00 0.00 0.00 0.00 0.00 0.00 0.00 0.00 0.00 0.00 0.01 0.01 0.01 0.02 0.01 0.04 0.04 0.01 0.10 0.11 0.11 0.24 0.31 0.31 0.44 0.50 0.59 0.59 0.75 0.81 0.75 0.85 0.85 1.05 0.96 0.71 0.71 0.59 0.42 0.31 0.31 0.08 0.05 0.05 0.03 0.07 0.05 0.05 0.00 0.00 0.15 0.13 0.13 0.08 0.03 0.01 0.01 0.00 0.00 0.00 0.00 0.00 0.03 0.03 0.01 0.00 0.00 0.00 0.00 0.00 0.00 0.05 0.05 0.06 0.05 0.02 0.02 0.00 0.00 0.00 0.00 0.00 0.01 0.01 0.00 0.00 0.00 0.00 0.00 0.00
0.00 0.00 0.00 0.00 0.00 0.00 0.00 0.00 0.00 0.00 0.00 0.00 0.00 0.00 0.00 0.00 0.00 0.00 0.00 0.00 0.00 0.00 0.00 0.01 0.01 0.01 0.02 0.04 0.06 0.06 0.03 0.10 0.12 0.12 0.16 0.32 0.32 0.37 0.46 0.53 0.53 0.74 0.77 0.71 0.72 0.72 0.92 0.80 0.61 0.61 0.50 0.49 0.36 0.36 0.22 0.05 0.05 0.03 0.03 0.04 0.04 0.01 0.00 0.00 0.14 0.14 0.15 0.09 0.06 0.06 0.00 0.00 0.00 0.00 0.01 0.05 0.05 0.00 0.00 0.00 0.00 0.00 0.00 0.00 0.05 0.05 0.07 0.05 0.15 0.15 0.00 0.00 0.00 0.00 0.00 0.00 0.00 0.00 0.00 0.00 0.00 0.00 0.00
0.00 0.00 0.00 0.00 0.00 0.00 0.00 0.00 0.00 0.00 0.00 0.00 0.00 0.00 0.00 0.00 0.00 0.00 0.00 0.00 0.00 0.00 0.00 0.01 0.01 0.01 0.02 0.04 0.04 0.04 0.03 0.06 0.16 0.16 0.21 0.34 0.34 0.35 0.45 0.46 0.46 0.59 0.78 0.80 0.74 0.74 0.74 0.69 0.56 0.56 0.41 0.43 0.37 0.37 0.26 0.14 0.14 0.06 0.02 0.02 0.02 0.07 0.09 0.09 0.16 0.16 0.17 0.14 0.08 0.08 0.04 0.00 0.00 0.00 0.02 0.05 0.05 0.02 0.00 0.00 0.00 0.00 0.00 0.00 0.06 0.06 0.07 0.05 0.14 0.14 0.00 0.00 0.00 0.00 0.00 0.00 0.00 0.00 0.00 0.00 0.00 0.00 0.00
0.00 0.00 0.00 0.00 0.00 0.00 0.00 0.00 0.00 0.00 0.00 0.00 0.00 0.00 0.00 0.00 0.00 0.00 0.00 0.00 0.00 0.00 0.00 0.01 0.01 0.01 0.02 0.03 0.05 0.05 0.04 0.09 0.18 0.18 0.21 0.33 0.33 0.33 0.39 0.44 0.44 0.47 0.80 0.77 0.76 0.76 0.73 0.64 0.51 0.51 0.36 0.33 0.32 0.32 0.37 0.42 0.42 0.19 0.04 0.05 0.05 0.10 0.20 0.29 0.25 0.25 0.17 0.16 0.10 0.10 0.06 0.05 0.00 0.00 0.00 0.05 0.05 0.01 0.00 0.00 0.00 0.00 0.00 0.00 0.06 0.06 0.08 0.06 0.13 0.13 0.03 0.00 0.00 0.00 0.00 0.00 0.00 0.00 0.00 0.00 0.00 0.00 0.00
0.00 0.00 0.00 0.00 0.00 0.00 0.00 0.00 0.00 0.00 0.00 0.00 0.00 0.00 0.00 0.00 0.00 0.00 0.00 0.00 0.00 0.00 0.00 0.01 0.01 0.01 0.02 0.06 0.08 0.08 0.06 0.11 0.17 0.17 0.19 0.24 0.24 0.31 0.32 0.45 0.45 0.52 0.80 0.77 0.72 0.72 0.68 0.64 0.41 0.41 0.37 0.29 0.29 0.29 0.41 0.45 0.45 0.41 0.27 0.12 0.12 0.13 0.23 0.26 0.31 0.31 0.24 0.20 0.14 0.14 0.09 0.06 0.00 0.00 0.00 0.07 0.07 0.01 0.00 0.00 0.00 0.00 0.00 0.00 0.00 0.00 0.09 0.06 0.05 0.05 0.03 0.01 0.00 0.00 0.00 0.00 0.00 0.00 0.00 0.00 0.00 0.00 0.00
0.00 0.00 0.00 0.00 0.00 0.00 0.00 0.00 0.00 0.00 0.00 0.00 0.00 0.00 0.00 0.00 0.00 0.00 0.00 0.00 0.00 0.00 0.00 0.00 0.02 0.02 0.03 0.07 0.08 0.08 0.09 0.12 0.18 0.18 0.21 0.23 0.23 0.34 0.38 0.49 0.49 0.60 0.72 0.82 0.65 0.65 0.52 0.51 0.41 0.41 0.36 0.27 0.27 0.27 0.30 0.46 0.46 0.54 0.47 0.29 0.29 0.24 0.20 0.29 0.29 0.29 0.30 0.25 0.19 0.19 0.11 0.06 0.01 0.01 0.01 0.07 0.07 0.01 0.00 0.00 0.00 0.00 0.00 0.00 0.00 0.00 0.07 0.05 0.04 0.04 0.02 0.01 0.00 0.00 0.00 0.00 0.00 0.00 0.00 0.00 0.00 0.00 0.00
0.00 0.00 0.00 0.00 0.00 0.00 0.00 0.00 0.00 0.00 0.00 0.00 0.00 0.00 0.00 0.00 0.00 0.00 0.00 0.00 0.00 0.00 0.00 0.00 0.02 0.02 0.02 0.04 0.07 0.07 0.08 0.13 0.18 0.18 0.21 0.24 0.24 0.35 0.39 0.43 0.43 0.56 0.72 0.76 0.63 0.63 0.38 0.37 0.41 0.41 0.40 0.30 0.26 0.26 0.28 0.37 0.37 0.51 0.64 0.60 0.60 0.62 0.33 0.40 0.29 0.29 0.29 0.32 0.23 0.23 0.17 0.09 0.01 0.01 0.00 0.07 0.07 0.05 0.00 0.00 0.00 0.00 0.00 0.00 0.00 0.00 0.08 0.08 0.04 0.04 0.08 0.01 0.01 0.01 0.00 0.00 0.00 0.00 0.00 0.00 0.00 0.00 0.00
0.00 0.00 0.00 0.00 0.00 0.00 0.00 0.00 0.00 0.00 0.00 0.00 0.00 0.00 0.00 0.00 0.00 0.00 0.00 0.00 0.00 0.00 0.01 0.00 0.01 0.01 0.02 0.03 0.06 0.06 0.08 0.12 0.18 0.18 0.17 0.23 0.23 0.28 0.42 0.46 0.46 0.44 0.69 0.90 0.72 0.72 0.53 0.44 0.51 0.51 0.39 0.30 0.24 0.24 0.37 0.36 0.36 0.38 0.56 0.68 0.68 0.66 0.62 0.60 0.48 0.48 0.38 0.26 0.25 0.25 0.20 0.11 0.00 0.00 0.00 0.06 0.06 0.05 0.01 0.00 0.00 0.00 0.00 0.00 0.00 0.00 0.07 0.07 0.03 0.03 0.05 0.01 0.01 0.01 0.00 0.00 0.00 0.00 0.00 0.00 0.00 0.00 0.00
0.00 0.00 0.00 0.00 0.00 0.00 0.00 0.00 0.00 0.00 0.00 0.00 0.00 0.00 0.00 0.00 0.00 0.00 0.00 0.00 0.00 0.00 0.01 0.01 0.01 0.01 0.02 0.02 0.05 0.05 0.07 0.06 0.14 0.14 0.12 0.21 0.21 0.26 0.40 0.42 0.42 0.48 0.65 0.86 0.97 0.97 0.92 0.57 0.57 0.57 0.45 0.38 0.29 0.29 0.39 0.39 0.39 0.37 0.42 0.52 0.52 0.61 0.67 0.82 0.83 0.83 0.52 0.36 0.28 0.28 0.25 0.14 0.05 0.05 0.00 0.05 0.05 0.06 0.01 0.00 0.00 0.00 0.00 0.00 0.00 0.00 0.00 0.06 0.04 0.04 0.02 0.00 0.00 0.00 0.00 0.00 0.00 0.00 0.00 0.00 0.00 0.00 0.00
0.00 0.00 0.00 0.00 0.00 0.00 0.00 0.00 0.00 0.00 0.00 0.00 0.00 0.00 0.00 0.00 0.00 0.00 0.00 0.00 0.00 0.00 0.00 0.03 0.03 0.03 0.04 0.03 0.03 0.03 0.07 0.06 0.09 0.09 0.07 0.21 0.21 0.26 0.33 0.35 0.35 0.36 0.67 0.98 1.26 1.26 1.30 1.07 0.81 0.81 0.65 0.45 0.45 0.45 0.47 0.47 0.47 0.45 0.34 0.25 0.25 0.47 0.59 0.64 0.71 0.71 0.75 0.58 0.39 0.39 0.47 0.19 0.11 0.11 0.01 0.06 0.06 0.07 0.01 0.00 0.00 0.00 0.00 0.00 0.00 0.00 0.00 0.05 0.03 0.03 0.01 0.00 0.00 0.00 0.00 0.00 0.00 0.00 0.00 0.00 0.00 0.00 0.00
0.00 0.00 0.00 0.00 0.00 0.00 0.00 0.00 0.00 0.00 0.00 0.00 0.00 0.00 0.00 0.00 0.00 0.00 0.00 0.00 0.00 0.00 0.01 0.03 0.04 0.04 0.04 0.04 0.04 0.04 0.06 0.07 0.07 0.07 0.07 0.10 0.10 0.27 0.28 0.28 0.28 0.27 0.74 0.97 1.18 1.18 1.54 1.40 1.04 1.04 0.81 0.56 0.48 0.48 0.60 0.55 0.55 0.46 0.23 0.15 0.15 0.20 0.49 0.57 0.46 0.46 0.55 0.65 0.68 0.68 0.75 0.24 0.11 0.11 0.05 0.08 0.08 0.08 0.01 0.00 0.00 0.00 0.00 0.00 0.00 0.00 0.00 0.01 0.03 0.03 0.01 0.00 0.00 0.00 0.00 0.00 0.00 0.00 0.00 0.00 0.00 0.00 0.00
0.00 0.00 0.00 0.00 0.00 0.00 0.00 0.00 0.00 0.00 0.00 0.00 0.00 0.00 0.00 0.00 0.00 0.00 0.00 0.01 0.01 0.01 0.01 0.01 0.03 0.03 0.05 0.04 0.04 0.04 0.05 0.05 0.05 0.05 0.07 0.12 0.12 0.29 0.30 0.30 0.30 0.36 0.55 0.97 1.12 1.12 1.46 1.38 1.41 1.41 1.03 0.86 0.61 0.61 0.73 0.56 0.56 0.52 0.39 0.14 0.14 0.10 0.27 0.44 0.49 0.49 0.39 0.38 0.73 0.73 0.65 0.71 0.19 0.19 0.05 0.09 0.09 0.09 0.10 0.00 0.00 0.00 0.00 0.00 0.01 0.01 0.00 0.01 0.03 0.03 0.01 0.00 0.00 0.00 0.00 0.01 0.01 0.01 0.00 0.01 0.01 0.00 0.00
0.00 0.00 0.00 0.00 0.00 0.00 0.00 0.00 0.00 0.00 0.00 0.00 0.00 0.00 0.00 0.00 0.00 0.00 0.00 0.01 0.01 0.01 0.01 0.01 0.01 0.01 0.03 0.07 0.04 0.04 0.04 0.05 0.06 0.06 0.13 0.19 0.19 0.32 0.37 0.35 0.35 0.46 0.59 0.94 1.00 1.00 1.07 1.18 1.27 1.27 1.32 1.13 0.79 0.79 0.83 0.75 0.75 0.57 0.46 0.20 0.20 0.09 0.07 0.28 0.32 0.32 0.54 0.30 0.27 0.27 0.31 0.44 0.42 0.42 0.12 0.07 0.07 0.10 0.11 0.02 0.02 0.00 0.00 0.00 0.01 0.01 0.00 0.01 0.02 0.02 0.02 0.00 0.00 0.00 0.00 0.01 0.01 0.01 0.01 0.02 0.02 0.02 0.00
0.00 0.00 0.00 0.00 0.00 0.00 0.00 0.00 0.00 0.00 0.00 0.00 0.00 0.00 0.00 0.00 0.00 0.00 0.00 0.00 0.00 0.00 0.01 0.00 0.01 0.01 0.01 0.04 0.06 0.06 0.05 0.05 0.07 0.07 0.14 0.18 0.18 0.27 0.38 0.37 0.37 0.52 0.65 0.83 0.98 0.98 0.97 1.02 1.11 1.11 1.28 1.30 1.17 1.17 0.99 0.84 0.84 0.68 0.58 0.58 0.58 0.15 0.06 0.22 0.30 0.30 0.41 0.42 0.24 0.24 0.22 0.19 0.19 0.19 0.06 0.02 0.02 0.08 0.12 0.02 0.02 0.00 0.00 0.00 0.01 0.01 0.00 0.00 0.01 0.01 0.02 0.01 0.00 0.00 0.00 0.00 0.00 0.01 0.02 0.02 0.02 0.02 0.02
0.00 0.00 0.00 0.00 0.00 0.00 0.00 0.00 0.00 0.00 0.00 0.00 0.00 0.00 0.00 0.00 0.00 0.00 0.00 0.00 0.00 0.00 0.00 0.00 0.00 0.00 0.00 0.02 0.07 0.07 0.08 0.06 0.07 0.07 0.09 0.19 0.19 0.26 0.39 0.44 0.44 0.52 0.72 0.84 0.90 0.90 0.89 0.89 0.90 0.90 0.88 1.16 1.25 1.25 1.21 1.11 1.11 0.86 0.71 0.73 0.73 0.59 0.27 0.28 0.42 0.42 0.37 0.50 0.37 0.37 0.40 0.23 0.14 0.14 0.15 0.02 0.02 0.05 0.12 0.02 0.02 0.00 0.00 0.00 0.00 0.00 0.00 0.00 0.01 0.01 0.02 0.01 0.00 0.00 0.00 0.00 0.00 0.00 0.01 0.01 0.01 0.02 0.00
0.00 0.00 0.00 0.00 0.00 0.00 0.00 0.00 0.00 0.00 0.00 0.00 0.00 0.00 0.00 0.00 0.00 0.00 0.00 0.00 0.00 0.00 0.00 0.00 0.00 0.00 0.00 0.01 0.09 0.09 0.08 0.05 0.06 0.06 0.09 0.20 0.20 0.25 0.33 0.47 0.47 0.54 0.74 0.81 0.81 0.81 0.78 0.62 0.66 0.66 0.72 0.83 0.99 0.99 0.83 1.17 1.17 1.15 1.02 0.96 0.96 0.84 0.48 0.42 0.59 0.59 0.43 0.46 0.53 0.53 0.52 0.45 0.15 0.15 0.18 0.11 0.11 0.03 0.07 0.02 0.02 0.00 0.00 0.00 0.00 0.00 0.00 0.00 0.00 0.00 0.01 0.01 0.00 0.00 0.00 0.00 0.00 0.00 0.00 0.00 0.00 0.00 0.01
0.00 0.00 0.00 0.00 0.00 0.00 0.00 0.00 0.00 0.00 0.00 0.00 0.00 0.00 0.00 0.00 0.00 0.00 0.00 0.00 0.00 0.00 0.00 0.00 0.00 0.00 0.00 0.00 0.00 0.00 0.03 0.03 0.04 0.04 0.05 0.07 0.07 0.18 0.27 0.38 0.38 0.45 0.52 0.64 0.65 0.65 0.48 0.30 0.26 0.26 0.37 0.46 0.37 0.37 0.36 0.41 0.41 0.75 0.96 0.84 0.84 1.33 1.30 1.09 1.24 1.24 0.95 0.56 0.45 0.45 0.35 0.40 0.45 0.45 0.44 0.25 0.25 0.07 0.05 0.04 0.04 0.01 0.00 0.00 0.00 0.00 0.00 0.00 0.00 0.00 0.00 0.01 0.00 0.00 0.00 0.00 0.00 0.00 0.00 0.00 0.00 0.00 0.00
0.00 0.00 0.00 0.00 0.00 0.00 0.00 0.00 0.00 0.00 0.00 0.00 0.00 0.00 0.00 0.00 0.00 0.00 0.00 0.00 0.00 0.00 0.00 0.00 0.00 0.00 0.00 0.00 0.00 0.00 0.01 0.02 0.03 0.03 0.05 0.06 0.06 0.11 0.15 0.21 0.21 0.36 0.43 0.51 0.54 0.54 0.40 0.25 0.19 0.19 0.28 0.32 0.25 0.25 0.28 0.24 0.24 0.30 0.60 0.46 0.46 1.08 1.27 1.37 1.60 1.60 1.40 1.03 0.78 0.78 0.47 0.34 0.37 0.37 0.35 0.43 0.43 0.23 0.06 0.07 0.07 0.02 0.00 0.00 0.00 0.00 0.00 0.00 0.00 0.00 0.00 0.01 0.01 0.01 0.00 0.00 0.00 0.00 0.00 0.00 0.00 0.00 0.00
0.00 0.00 0.00 0.00 0.00 0.00 0.00 0.00 0.00 0.00 0.00 0.00 0.00 0.00 0.00 0.00 0.00 0.00 0.00 0.00 0.00 0.00 0.00 0.00 0.00 0.00 0.00 0.00 0.00 0.00 0.00 0.02 0.03 0.03 0.05 0.05 0.05 0.07 0.15 0.19 0.19 0.33 0.40 0.47 0.43 0.43 0.31 0.22 0.16 0.16 0.14 0.23 0.20 0.20 0.20 0.20 0.20 0.16 0.12 0.18 0.18 0.33 0.98 1.15 1.13 1.13 1.72 1.59 1.13 1.13 0.79 0.49 0.33 0.33 0.33 0.44 0.44 0.35 0.16 0.09 0.09 0.03 0.00 0.03 0.00 0.00 0.00 0.00 0.00 0.00 0.00 0.00 0.00 0.00 0.00 0.00 0.00 0.00 0.00 0.00 0.00 0.00 0.00
0.00 0.00 0.00 0.00 0.00 0.00 0.00 0.00 0.00 0.00 0.00 0.00 0.00 0.00 0.00 0.00 0.00 0.00 0.00 0.00 0.00 0.00 0.00 0.00 0.00 0.00 0.00 0.00 0.00 0.00 0.00 0.02 0.03 0.03 0.05 0.06 0.06 0.06 0.13 0.16 0.16 0.22 0.36 0.41 0.37 0.37 0.27 0.21 0.16 0.16 0.12 0.15 0.15 0.15 0.15 0.13 0.13 0.13 0.08 0.06 0.06 0.10 0.23 0.41 0.81 0.81 1.59 1.81 1.82 1.82 1.16 0.79 0.55 0.55 0.50 0.53 0.53 0.44 0.19 0.12 0.12 0.09 0.03 0.03 0.00 0.00 0.01 0.00 0.00 0.00 0.00 0.00 0.00 0.00 0.00 0.00 0.00 0.00 0.00 0.00 0.00 0.00 0.00
0.00 0.00 0.00 0.00 0.00 0.00 0.00 0.00 0.00 0.00 0.00 0.00 0.00 0.00 0.00 0.00 0.00 0.00 0.00 0.00 0.00 0.00 0.00 0.00 0.00 0.00 0.00 0.00 0.00 0.00 0.00 0.01 0.03 0.03 0.05 0.06 0.06 0.06 0.09 0.15 0.15 0.19 0.31 0.36 0.34 0.34 0.28 0.23 0.17 0.17 0.14 0.11 0.13 0.13 0.10 0.10 0.10 0.09 0.06 0.03 0.03 0.03 0.06 0.21 0.40 0.40 0.79 1.73 1.67 1.67 1.69 1.09 0.83 0.83 0.79 0.60 0.60 0.51 0.25 0.14 0.14 0.08 0.03 0.03 0.01 0.01 0.01 0.01 0.00 0.00 0.00 0.00 0.00 0.00 0.00 0.00 0.00 0.00 0.00 0.00 0.00 0.00 0.00
0.00 0.00 0.00 0.00 0.00 0.00 0.00 0.00 0.00 0.00 0.00 0.00 0.00 0.00 0.00 0.00 0.00 0.00 0.00 0.00 0.00 0.00 0.00 0.00 0.00 0.00 0.00 0.00 0.00 0.00 0.00 0.00 0.03 0.03 0.04 0.07 0.07 0.08 0.11 0.15 0.15 0.18 0.22 0.32 0.31 0.31 0.26 0.26 0.24 0.24 0.17 0.14 0.13 0.13 0.11 0.08 0.08 0.05 0.04 0.04 0.04 0.02 0.05 0.13 0.36 0.36 0.49 0.80 1.32 1.32 1.53 1.21 1.07 1.07 1.03 0.58 0.58 0.55 0.36 0.15 0.15 0.05 0.01 0.03 0.00 0.00 0.01 0.02 0.01 0.01 0.00 0.01 0.00 0.00 0.00 0.00 0.00 0.00 0.00 0.00 0.00 0.00 0.00
0.00 0.00 0.00 0.00 0.01 0.01 0.01 0.00 0.01 0.01 0.01 0.00 0.00 0.00 0.00 0.00 0.00 0.00 0.00 0.00 0.00 0.00 0.00 0.00 0.00 0.00 0.00 0.00 0.00 0.00 0.00 0.00 0.02 0.02 0.04 0.06 0.06 0.08 0.12 0.16 0.16 0.18 0.25 0.32 0.29 0.29 0.27 0.27 0.26 0.26 0.17 0.15 0.17 0.17 0.18 0.14 0.14 0.08 0.06 0.04 0.04 0.03 0.07 0.12 0.35 0.35 0.41 0.61 1.03 1.03 1.30 1.25 1.06 1.06 0.92 0.83 0.83 0.50 0.31 0.23 0.23 0.13 0.02 0.01 0.00 0.00 0.00 0.02 0.01 0.01 0.01 0.01 0.01 0.01 0.01 0.00 0.00 0.00 0.00 0.00 0.00 0.00 0.00
0.01 0.01 0.00 0.01 0.01 0.01 0.01 0.01 0.01 0.01 0.01 0.01 0.00 0.00 0.00 0.00 0.00 0.00 0.00 0.00 0.00 0.00 0.00 0.00 0.00 0.00 0.00 0.00 0.00 0.00 0.00 0.00 0.02 0.02 0.04 0.05 0.05 0.08 0.13 0.17 0.17 0.21 0.24 0.33 0.32 0.32 0.29 0.26 0.23 0.23 0.22 0.16 0.15 0.15 0.20 0.17 0.17 0.11 0.08 0.05 0.05 0.05 0.07 0.09 0.19 0.19 0.39 0.49 0.83 0.83 1.16 1.17 1.06 1.06 0.79 0.67 0.67 0.59 0.36 0.28 0.28 0.10 0.06 0.05 0.03 0.03 0.00 0.01 0.01 0.01 0.01 0.01 0.02 0.02 0.00 0.00 0.00 0.00 0.00 0.00 0.00 0.00 0.00
0.01 0.01 0.01 0.01 0.00 0.00 0.00 0.00 0.00 0.00 0.01 0.01 0.00 0.00 0.00 0.00 0.00 0.00 0.00 0.00 0.00 0.00 0.00 0.00 0.00 0.00 0.00 0.00 0.00 0.00 0.00 0.00 0.01 0.01 0.04 0.07 0.07 0.07 0.13 0.21 0.21 0.26 0.30 0.39 0.36 0.36 0.31 0.33 0.24 0.24 0.21 0.23 0.14 0.14 0.18 0.22 0.22 0.14 0.14 0.09 0.09 0.10 0.09 0.13 0.20 0.20 0.36 0.45 0.82 0.82 1.17 1.15 0.96 0.96 0.74 0.54 0.54 0.51 0.36 0.29 0.29 0.16 0.10 0.03 0.04 0.04 0.03 0.03 0.01 0.01 0.02 0.01 0.01 0.01 0.00 0.00 0.00 0.00 0.00 0.00 0.00 0.00 0.00
0.01 0.01 0.01 0.00 0.01 0.01 0.01 0.01 0.01 0.01 0.00 0.00 0.00 0.00 0.00 0.00 0.00 0.00 0.00 0.00 0.00 0.00 0.00 0.00 0.00 0.00 0.00 0.00 0.00 0.00 0.00 0.00 0.00 0.00 0.04 0.07 0.07 0.10 0.13 0.23 0.23 0.30 0.37 0.41 0.41 0.41 0.38 0.39 0.27 0.27 0.28 0.27 0.17 0.17 0.19 0.25 0.25 0.21 0.20 0.18 0.18 0.13 0.13 0.21 0.20 0.20 0.29 0.41 0.72 0.72 1.11 1.39 0.94 0.94 0.71 0.50 0.50 0.44 0.40 0.28 0.28 0.14 0.13 0.10 0.02 0.02 0.02 0.03 0.02 0.02 0.02 0.01 0.00 0.00 0.00 0.00 0.00 0.00 0.00 0.00 0.00 0.00 0.00
0.01 0.01 0.01 0.01 0.02 0.02 0.01 0.01 0.01 0.01 0.00 0.00 0.00 0.00 0.00 0.00 0.00 0.00 0.00 0.00 0.00 0.00 0.00 0.00 0.00 0.00 0.00 0.00 0.00 0.00 0.00 0.00 0.01 0.01 0.02 0.07 0.07 0.09 0.14 0.22 0.22 0.32 0.47 0.48 0.47 0.47 0.44 0.46 0.43 0.43 0.32 0.32 0.29 0.29 0.24 0.27 0.27 0.28 0.25 0.24 0.24 0.20 0.15 0.27 0.25 0.25 0.28 0.45 0.71 0.71 1.00 1.46 1.08 1.08 0.86 0.55 0.55 0.43 0.34 0.26 0.26 0.07 0.09 0.06 0.05 0.05 0.02 0.04 0.01 0.01 0.01 0.01 0.01 0.01 0.00 0.00 0.00 0.00 0.00 0.00 0.00 0.00 0.00
0.02 0.02 0.02 0.01 0.01 0.01 0.01 0.01 0.01 0.01 0.01 0.00 0.00 0.00 0.00 0.00 0.00 0.00 0.00 0.00 0.00 0.00 0.00 0.00 0.00 0.00 0.00 0.00 0.00 0.00 0.00 0.01 0.01 0.01 0.02 0.08 0.08 0.09 0.10 0.24 0.24 0.34 0.42 0.53 0.49 0.49 0.46 0.45 0.47 0.47 0.38 0.37 0.36 0.36 0.33 0.36 0.36 0.39 0.30 0.30 0.30 0.30 0.24 0.28 0.29 0.29 0.33 0.44 0.60 0.60 0.87 1.38 1.62 1.62 1.10 0.62 0.62 0.43 0.31 0.22 0.22 0.14 0.04 0.04 0.04 0.04 0.04 0.02 0.03 0.03 0.03 0.01 0.00 0.00 0.00 0.00 0.00 0.00 0.00 0.00 0.00 0.00 0.00
0.02 0.02 0.02 0.02 0.01 0.01 0.01 0.01 0.01 0.01 0.00 0.00 0.00 0.00 0.00 0.00 0.00 0.00 0.00 0.00 0.00 0.00 0.00 0.00 0.00 0.00 0.00 0.00 0.00 0.00 0.00 0.01 0.02 0.02 0.03 0.06 0.06 0.10 0.11 0.25 0.25 0.33 0.41 0.56 0.50 0.50 0.48 0.45 0.46 0.46 0.45 0.35 0.31 0.31 0.32 0.42 0.42 0.35 0.35 0.34 0.34 0.35 0.34 0.33 0.32 0.32 0.35 0.46 0.59 0.59 0.67 1.17 1.48 1.48 1.79 0.72 0.72 0.44 0.37 0.20 0.20 0.11 0.09 0.06 0.04 0.04 0.04 0.03 0.03 0.03 0.04 0.02 0.00 0.00 0.00 0.00 0.00 0.00 0.00 0.00 0.00 0.00 0.00
0.03 0.03 0.03 0.03 0.02 0.02 0.02 0.01 0.01 0.01 0.00 0.00 0.00 0.00 0.00 0.00 0.00 0.00 0.00 0.00 0.00 0.00 0.00 0.00 0.00 0.00 0.00 0.00 0.00 0.00 0.00 0.01 0.03 0.03 0.03 0.06 0.06 0.10 0.10 0.17 0.17 0.34 0.43 0.59 0.50 0.50 0.53 0.52 0.38 0.38 0.37 0.29 0.26 0.26 0.24 0.38 0.38 0.32 0.32 0.31 0.31 0.39 0.38 0.40 0.38 0.38 0.42 0.45 0.54 0.54 0.66 0.76 1.24 1.24 1.81 1.64 1.64 0.50 0.46 0.38 0.38 0.15 0.17 0.11 0.05 0.05 0.04 0.07 0.03 0.03 0.03 0.03 0.01 0.01 0.00 0.00 0.00 0.00 0.00 0.00 0.00 0.00 0.00
0.04 0.04 0.04 0.03 0.02 0.02 0.02 0.02 0.01 0.01 0.01 0.00 0.00 0.00 0.00 0.00 0.00 0.01 0.01 0.01 0.01 0.00 0.01 0.01 0.00 0.00 0.00 0.00 0.00 0.00 0.01 0.01 0.02 0.02 0.03 0.04 0.04 0.09 0.15 0.22 0.22 0.38 0.44 0.61 0.49 0.49 0.48 0.52 0.39 0.39 0.29 0.27 0.22 0.22 0.23 0.29 0.29 0.30 0.27 0.26 0.26 0.31 0.31 0.37 0.48 0.48 0.45 0.46 0.54 0.54 0.68 0.75 1.00 1.00 1.65 1.84 1.84 0.70 0.63 0.55 0.55 0.44 0.25 0.18 0.12 0.12 0.05 0.13 0.07 0.07 0.01 0.02 0.01 0.01 0.00 0.01 0.01 0.00 0.00 0.00 0.00 0.00 0.00
0.02 0.03 0.03 0.03 0.03 0.03 0.02 0.02 0.01 0.01 0.00 0.00 0.01 0.01 0.01 0.01 0.01 0.01 0.01 0.01 0.01 0.01 0.01 0.01 0.01 0.01 0.01 0.00 0.00 0.00 0.01 0.02 0.03 0.03 0.04 0.04 0.04 0.04 0.17 0.22 0.22 0.30 0.49 0.63 0.56 0.56 0.47 0.51 0.46 0.46 0.29 0.24 0.20 0.20 0.24 0.30 0.30 0.35 0.22 0.19 0.19 0.20 0.22 0.31 0.39 0.39 0.52 0.48 0.42 0.42 0.69 0.78 0.94 0.94 1.40 1.90 1.90 1.52 0.81 0.70 0.70 0.60 0.59 0.21 0.15 0.15 0.12 0.15 0.11 0.11 0.09 0.03 0.01 0.01 0.01 0.01 0.01 0.00 0.00 0.00 0.00 0.00 0.00
0.03 0.02 0.02 0.02 0.02 0.02 0.02 0.01 0.01 0.01 0.00 0.01 0.01 0.01 0.02 0.03 0.03 0.02 0.02 0.02 0.02 0.01 0.01 0.01 0.01 0.01 0.01 0.01 0.01 0.01 0.02 0.04 0.06 0.06 0.05 0.06 0.06 0.04 0.17 0.24 0.24 0.30 0.52 0.62 0.55 0.55 0.48 0.55 0.50 0.50 0.32 0.23 0.17 0.17 0.27 0.31 0.31 0.34 0.24 0.17 0.17 0.14 0.18 0.21 0.31 0.31 0.44 0.49 0.47 0.47 0.52 0.84 0.95 0.95 0.88 1.72 1.72 1.67 1.35 0.84 0.84 0.74 0.74 0.30 0.23 0.23 0.18 0.23 0.14 0.14 0.17 0.06 0.01 0.01 0.01 0.01 0.01 0.00 0.00 0.00 0.00 0.00 0.00
0.03 0.03 0.03 0.03 0.02 0.02 0.02 0.01 0.01 0.01 0.00 0.01 0.02 0.02 0.01 0.02 0.02 0.02 0.02 0.03 0.03 0.03 0.02 0.01 0.01 0.01 0.01 0.01 0.01 0.01 0.01 0.04 0.07 0.07 0.08 0.08 0.08 0.06 0.07 0.25 0.25 0.32 0.38 0.57 0.51 0.51 0.46 0.55 0.53 0.53 0.46 0.25 0.17 0.17 0.16 0.32 0.32 0.34 0.31 0.18 0.18 0.13 0.10 0.18 0.22 0.22 0.30 0.46 0.47 0.47 0.55 0.72 0.94 0.94 0.92 0.95 0.95 1.68 1.34 1.07 1.07 0.87 0.85 0.67 0.35 0.35 0.26 0.29 0.23 0.23 0.14 0.11 0.03 0.03 0.01 0.01 0.01 0.00 0.00 0.00 0.00 0.00 0.00
0.03 0.03 0.02 0.02 0.03 0.03 0.02 0.02 0.01 0.01 0.01 0.01 0.01 0.01 0.00 0.00 0.00 0.00 0.00 0.01 0.01 0.01 0.01 0.01 0.01 0.01 0.01 0.00 0.00 0.00 0.01 0.04 0.07 0.07 0.09 0.09 0.09 0.09 0.10 0.27 0.27 0.31 0.41 0.53 0.47 0.47 0.42 0.49 0.55 0.55 0.54 0.35 0.23 0.23 0.17 0.22 0.22 0.32 0.32 0.29 0.29 0.13 0.10 0.10 0.15 0.15 0.28 0.41 0.46 0.46 0.51 0.63 0.85 0.85 0.92 0.94 0.94 1.19 1.32 1.12 1.12 0.96 0.92 0.77 0.63 0.63 0.40 0.37 0.27 0.27 0.16 0.10 0.06 0.06 0.04 0.00 0.00 0.00 0.00 0.00 0.00 0.00 0.00
0.03 0.03 0.03 0.03 0.03 0.03 0.03 0.02 0.00 0.00 0.00 0.01 0.00 0.00 0.01 0.00 0.00 0.00 0.01 0.01 0.01 0.01 0.01 0.02 0.01 0.01 0.01 0.01 0.00 0.00 0.01 0.02 0.06 0.06 0.06 0.08 0.08 0.10 0.12 0.15 0.15 0.36 0.45 0.50 0.50 0.50 0.44 0.42 0.53 0.53 0.63 0.58 0.35 0.35 0.28 0.39 0.39 0.35 0.34 0.28 0.28 0.18 0.15 0.13 0.12 0.12 0.28 0.42 0.56 0.56 0.52 0.57 0.66 0.66 0.91 0.98 0.98 1.05 1.07 1.01 1.01 0.93 0.87 0.83 0.69 0.69 0.62 0.42 0.32 0.32 0.19 0.16 0.06 0.06 0.05 0.04 0.04 0.04 0.00 0.00 0.00 0.00 0.00
0.02 0.04 0.04 0.04 0.02 0.02 0.01 0.01 0.00 0.00 0.00 0.03 0.03 0.03 0.02 0.02 0.02 0.02 0.02 0.02 0.02 0.01 0.02 0.02 0.02 0.02 0.01 0.01 0.00 0.00 0.01 0.02 0.05 0.05 0.05 0.07 0.07 0.09 0.13 0.18 0.18 0.36 0.47 0.53 0.55 0.55 0.50 0.41 0.54 0.54 0.56 0.58 0.56 0.56 0.45 0.52 0.52 0.46 0.38 0.34 0.34 0.25 0.20 0.16 0.15 0.15 0.26 0.40 0.55 0.55 0.53 0.67 0.73 0.73 0.73 0.86 0.86 0.98 0.93 0.91 0.91 0.85 0.77 0.83 0.74 0.74 0.66 0.55 0.36 0.36 0.24 0.19 0.15 0.15 0.07 0.07 0.07 0.06 0.04 0.00 0.00 0.00 0.00
0.02 0.03 0.03 0.03 0.01 0.01 0.01 0.01 0.01 0.01 0.02 0.05 0.10 0.10 0.09 0.08 0.08 0.06 0.04 0.04 0.04 0.02 0.02 0.02 0.03 0.03 0.01 0.01 0.00 0.00 0.01 0.02 0.03 0.03 0.05 0.06 0.06 0.07 0.14 0.19 0.19 0.26 0.38 0.49 0.57 0.57 0.57 0.46 0.48 0.48 0.51 0.49 0.58 0.58 0.60 0.62 0.62 0.52 0.47 0.43 0.43 0.33 0.31 0.21 0.17 0.17 0.15 0.33 0.44 0.44 0.53 0.74 0.76 0.76 0.74 0.70 0.70 0.71 0.80 0.80 0.80 0.73 0.61 0.73 0.77 0.77 0.69 0.60 0.48 0.48 0.29 0.25 0.16 0.16 0.13 0.09 0.09 0.05 0.05 0.01 0.01 0.00 0.00
0.02 0.03 0.03 0.03 0.02 0.02 0.01 0.01 0.01 0.01 0.01 0.01 0.03 0.03 0.06 0.06 0.06 0.06 0.06 0.06 0.06 0.05 0.03 0.05 0.05 0.05 0.03 0.02 0.01 0.01 0.01 0.02 0.03 0.03 0.05 0.05 0.05 0.08 0.16 0.22 0.22 0.25 0.33 0.42 0.54 0.54 0.71 0.56 0.55 0.55 0.48 0.46 0.52 0.52 0.60 0.64 0.64 0.59 0.51 0.51 0.51 0.42 0.42 0.35 0.27 0.27 0.20 0.22 0.35 0.35 0.42 0.52 0.82 0.82 0.80 0.76 0.76 0.76 0.71 0.72 0.72 0.72 0.51 0.58 0.67 0.67 0.62 0.61 0.49 0.49 0.42 0.35 0.18 0.18 0.17 0.11 0.11 0.05 0.04 0.00 0.00 0.00 0.00
0.03 0.03 0.02 0.02 0.02 0.02 0.01 0.01 0.01 0.01 0.02 0.02 0.02 0.02 0.01 0.01 0.01 0.01 0.02 0.03 0.03 0.04 0.08 0.08 0.08 0.08 0.07 0.03 0.03 0.03 0.02 0.04 0.06 0.06 0.05 0.07 0.07 0.11 0.16 0.25 0.25 0.26 0.23 0.27 0.36 0.36 0.49 0.70 0.69 0.69 0.63 0.63 0.46 0.46 0.45 0.50 0.50 0.63 0.62 0.61 0.61 0.51 0.43 0.46 0.44 0.44 0.28 0.24 0.21 0.21 0.25 0.43 0.61 0.61 0.80 0.92 0.92 1.01 0.89 0.85 0.85 0.75 0.78 0.58 0.39 0.39 0.39 0.45 0.53 0.53 0.39 0.33 0.25 0.25 0.22 0.21 0.21 0.14 0.07 0.02 0.02 0.00 0.00
0.02 0.02 0.02 0.02 0.02 0.02 0.01 0.01 0.02 0.02 0.02 0.02 0.02 0.02 0.02 0.01 0.01 0.02 0.03 0.03 0.03 0.03 0.03 0.07 0.09 0.09 0.10 0.08 0.05 0.05 0.02 0.04 0.06 0.06 0.06 0.08 0.08 0.14 0.23 0.28 0.28 0.27 0.24 0.21 0.28 0.28 0.38 0.51 0.63 0.63 0.66 0.64 0.60 0.60 0.42 0.45 0.45 0.56 0.62 0.54 0.54 0.49 0.39 0.45 0.43 0.43 0.39 0.27 0.20 0.20 0.21 0.42 0.52 0.52 0.75 0.95 0.95 1.26 1.09 1.03 1.03 0.90 0.84 0.58 0.42 0.42 0.35 0.36 0.42 0.42 0.49 0.42 0.26 0.26 0.20 0.22 0.22 0.18 0.07 0.04 0.04 0.00 0.00
0.02 0.02 0.02 0.02 0.02 0.02 0.02 0.02 0.02 0.02 0.03 0.03 0.03 0.03 0.03 0.02 0.02 0.02 0.04 0.03 0.03 0.03 0.03 0.05 0.07 0.07 0.10 0.11 0.10 0.10 0.08 0.07 0.13 0.13 0.12 0.12 0.12 0.23 0.31 0.32 0.32 0.22 0.22 0.20 0.26 0.26 0.31 0.38 0.44 0.44 0.57 0.53 0.52 0.52 0.43 0.39 0.39 0.46 0.59 0.57 0.57 0.46 0.40 0.40 0.46 0.46 0.45 0.37 0.22 0.22 0.21 0.26 0.48 0.48 0.69 0.97 0.97 1.25 1.33 1.21 1.21 1.04 1.05 0.67 0.44 0.44 0.43 0.33 0.39 0.39 0.46 0.39 0.35 0.35 0.22 0.21 0.21 0.18 0.08 0.06 0.06 0.01 0.00
0.02 0.02 0.02 0.02 0.02 0.02 0.02 0.02 0.03 0.03 0.03 0.04 0.04 0.04 0.04 0.03 0.03 0.03 0.03 0.03 0.03 0.03 0.02 0.03 0.05 0.05 0.07 0.07 0.08 0.08 0.08 0.06 0.14 0.14 0.13 0.17 0.17 0.25 0.30 0.25 0.25 0.18 0.18 0.20 0.21 0.21 0.32 0.35 0.37 0.37 0.49 0.44 0.41 0.41 0.41 0.40 0.40 0.43 0.57 0.53 0.53 0.39 0.39 0.37 0.44 0.44 0.43 0.39 0.27 0.27 0.19 0.20 0.39 0.39 0.66 0.95 0.95 1.07 1.30 1.37 1.37 1.20 1.23 0.96 0.52 0.52 0.51 0.36 0.40 0.40 0.44 0.43 0.39 0.39 0.24 0.20 0.20 0.16 0.15 0.06 0.06 0.01 0.00
0.02 0.02 0.02 0.02 0.02 0.02 0.02 0.02 0.02 0.02 0.03 0.05 0.06 0.06 0.06 0.04 0.04 0.03 0.03 0.03 0.03 0.02 0.02 0.02 0.04 0.04 0.05 0.05 0.05 0.05 0.04 0.04 0.08 0.08 0.21 0.26 0.26 0.26 0.31 0.23 0.23 0.22 0.20 0.21 0.23 0.23 0.25 0.29 0.29 0.29 0.37 0.45 0.39 0.39 0.53 0.45 0.45 0.47 0.49 0.49 0.49 0.30 0.36 0.40 0.35 0.35 0.39 0.43 0.28 0.28 0.20 0.20 0.28 0.28 0.46 0.79 0.79 0.85 1.08 1.32 1.32 1.41 1.50 1.12 0.83 0.83 0.57 0.38 0.29 0.29 0.28 0.45 0.37 0.37 0.34 0.27 0.27 0.15 0.12 0.07 0.07 0.07 0.01
0.02 0.02 0.02 0.02 0.02 0.02 0.01 0.01 0.01 0.01 0.02 0.04 0.05 0.05 0.05 0.04 0.04 0.03 0.02 0.02 0.02 0.02 0.02 0.02 0.05 0.05 0.07 0.08 0.07 0.07 0.04 0.04 0.08 0.08 0.22 0.28 0.28 0.29 0.34 0.30 0.30 0.27 0.31 0.25 0.27 0.27 0.30 0.30 0.25 0.25 0.29 0.49 0.51 0.51 0.70 0.65 0.65 0.49 0.40 0.41 0.41 0.41 0.27 0.41 0.38 0.38 0.29 0.41 0.25 0.25 0.20 0.22 0.25 0.25 0.35 0.51 0.51 0.70 0.94 1.17 1.17 1.41 1.67 1.38 0.97 0.97 0.93 0.43 0.26 0.26 0.21 0.32 0.35 0.35 0.30 0.18 0.18 0.19 0.12 0.10 0.10 0.07 0.04
0.01 0.01 0.01 0.01 0.01 0.01 0.01 0.01 0.02 0.02 0.03 0.04 0.05 0.05 0.04 0.03 0.03 0.03 0.03 0.03 0.03 0.02 0.02 0.02 0.03 0.03 0.06 0.07 0.08 0.08 0.05 0.06 0.12 0.12 0.26 0.31 0.31 0.33 0.31 0.29 0.29 0.28 0.35 0.36 0.39 0.39 0.39 0.55 0.31 0.31 0.25 0.37 0.71 0.71 0.89 0.85 0.85 0.65 0.40 0.40 0.40 0.48 0.31 0.33 0.37 0.37 0.31 0.27 0.24 0.24 0.18 0.19 0.26 0.26 0.31 0.41 0.41 0.47 0.82 1.08 1.08 1.30 1.36 1.61 1.26 1.26 1.26 0.90 0.28 0.28 0.23 0.28 0.30 0.30 0.28 0.19 0.19 0.20 0.21 0.12 0.12 0.07 0.06
0.02 0.02 0.02 0.01 0.01 0.01 0.01 0.00 0.01 0.01 0.02 0.03 0.04 0.04 0.03 0.03 0.03 0.03 0.02 0.04 0.04 0.03 0.02 0.02 0.01 0.01 0.04 0.05 0.05 0.05 0.07 0.08 0.15 0.15 0.21 0.27 0.27 0.31 0.34 0.30 0.30 0.31 0.35 0.44 0.47 0.47 0.51 0.63 0.61 0.61 0.31 0.31 0.52 0.52 0.95 1.04 1.04 0.86 0.59 0.46 0.46 0.52 0.38 0.20 0.35 0.35 0.37 0.31 0.23 0.23 0.17 0.21 0.28 0.28 0.28 0.34 0.34 0.39 0.48 1.01 1.01 1.16 1.19 1.36 1.57 1.57 1.49 1.27 0.78 0.78 0.29 0.28 0.29 0.29 0.29 0.19 0.19 0.24 0.24 0.18 0.18 0.08 0.08
0.01 0.01 0.02 0.01 0.01 0.01 0.01 0.00 0.00 0.00 0.01 0.02 0.03 0.03 0.04 0.04 0.04 0.04 0.05 0.08 0.08 0.08 0.07 0.04 0.02 0.02 0.04 0.04 0.04 0.04 0.04 0.10 0.16 0.16 0.22 0.22 0.22 0.21 0.25 0.23 0.23 0.35 0.39 0.47 0.58 0.58 0.57 0.64 0.63 0.63 0.42 0.38 0.43 0.43 0.58 1.12 1.12 1.04 0.74 0.64 0.64 0.53 0.46 0.30 0.31 0.31 0.34 0.33 0.31 0.31 0.24 0.25 0.25 0.25 0.28 0.33 0.33 0.36 0.42 0.65 0.65 1.11 1.14 1.16 1.29 1.29 1.33 1.35 1.06 1.06 0.70 0.27 0.25 0.25 0.21 0.12 0.12 0.25 0.24 0.15 0.15 0.15 0.08
0.01 0.01 0.03 0.03 0.02 0.02 0.01 0.01 0.00 0.00 0.00 0.01 0.03 0.03 0.03 0.03 0.03 0.04 0.05 0.07 0.07 0.08 0.12 0.11 0.07 0.07 0.06 0.03 0.04 0.04 0.05 0.13 0.17 0.17 0.19 0.20 0.20 0.14 0.16 0.22 0.22 0.26 0.37 0.57 0.67 0.67 0.80 0.72 0.63 0.63 0.65 0.51 0.44 0.44 0.52 0.75 0.75 1.04 0.89 0.78 0.78 0.52 0.53 0.42 0.28 0.28 0.32 0.35 0.36 0.36 0.41 0.30 0.21 0.21 0.27 0.30 0.30 0.40 0.37 0.53 0.53 0.69 1.04 1.03 1.04 1.04 0.88 1.07 1.02 1.02 0.70 0.44 0.22 0.22 0.18 0.13 0.13 0.17 0.19 0.16 0.16 0.15 0.11
0.03 0.06 0.06 0.06 0.04 0.04 0.03 0.02 0.01 0.01 0.01 0.01 0.02 0.02 0.03 0.04 0.04 0.05 0.06 0.07 0.07 0.07 0.09 0.14 0.14 0.14 0.11 0.06 0.05 0.05 0.07 0.10 0.20 0.20 0.21 0.18 0.18 0.17 0.38 0.37 0.37 0.24 0.29 0.45 0.64 0.64 0.61 0.65 0.67 0.67 0.59 0.68 0.64 0.64 0.54 0.64 0.64 0.94 0.91 0.78 0.78 0.62 0.57 0.55 0.38 0.38 0.40 0.37 0.34 0.34 0.41 0.43 0.22 0.22 0.24 0.33 0.33 0.34 0.40 0.47 0.47 0.58 0.70 0.89 0.85 0.85 0.71 0.85 0.84 0.84 0.72 0.50 0.33 0.33 0.22 0.13 0.13 0.16 0.16 0.20 0.20 0.11 0.14
0.09 0.08 0.06 0.06 0.06 0.06 0.05 0.05 0.03 0.03 0.01 0.02 0.03 0.03 0.03 0.06 0.06 0.08 0.10 0.09 0.09 0.09 0.10 0.11 0.16 0.16 0.18 0.14 0.09 0.09 0.09 0.10 0.24 0.24 0.24 0.16 0.16 0.25 0.36 0.26 0.26 0.20 0.17 0.31 0.48 0.48 0.40 0.42 0.52 0.52 0.51 0.58 0.62 0.62 0.57 0.59 0.59 0.68 0.86 0.66 0.66 0.62 0.58 0.71 0.53 0.53 0.49 0.35 0.33 0.33 0.37 0.43 0.40 0.40 0.24 0.33 0.33 0.38 0.41 0.45 0.45 0.55 0.56 0.67 0.70 0.70 0.52 0.70 0.95 0.95 0.98 0.62 0.43 0.43 0.28 0.19 0.19 0.10 0.16 0.19 0.19 0.13 0.14
0.05 0.05 0.05 0.06 0.10 0.10 0.09 0.07 0.07 0.07 0.05 0.05 0.06 0.06 0.07 0.08 0.08 0.07 0.08 0.09 0.09 0.10 0.12 0.14 0.15 0.15 0.19 0.15 0.09 0.09 0.06 0.08 0.13 0.13 0.22 0.14 0.14 0.25 0.20 0.28 0.28 0.30 0.29 0.18 0.31 0.31 0.19 0.27 0.38 0.38 0.45 0.51 0.70 0.70 0.68 0.65 0.65 0.64 0.65 0.55 0.55 0.57 0.63 0.74 0.91 0.91 0.62 0.32 0.24 0.24 0.35 0.39 0.45 0.45 0.32 0.36 0.36 0.42 0.46 0.44 0.44 0.58 0.58 0.58 0.53 0.53 0.34 0.57 0.97 0.97 1.02 0.98 0.55 0.55 0.50 0.29 0.29 0.15 0.26 0.19 0.19 0.12 0.13
0.02 0.03 0.04 0.06 0.13 0.13 0.13 0.13 0.13 0.13 0.11 0.12 0.12 0.12 0.12 0.09 0.09 0.08 0.07 0.05 0.05 0.07 0.11 0.16 0.17 0.17 0.20 0.17 0.17 0.17 0.08 0.10 0.14 0.14 0.19 0.11 0.11 0.11 0.10 0.34 0.34 0.45 0.57 0.53 0.17 0.17 0.34 0.38 0.43 0.43 0.48 0.52 0.63 0.63 0.73 0.63 0.63 0.69 0.63 0.42 0.42 0.51 0.59 0.72 0.77 0.77 0.70 0.44 0.27 0.27 0.27 0.41 0.44 0.44 0.44 0.35 0.35 0.43 0.50 0.54 0.54 0.62 0.64 0.54 0.46 0.46 0.39 0.39 0.85 0.85 0.97 1.05 0.91 0.91 0.58 0.38 0.38 0.24 0.16 0.22 0.22 0.14 0.12
0.01 0.03 0.04 0.05 0.08 0.08 0.14 0.16 0.16 0.16 0.12 0.12 0.14 0.14 0.14 0.14 0.14 0.13 0.10 0.08 0.08 0.07 0.12 0.19 0.18 0.18 0.20 0.22 0.24 0.24 0.15 0.13 0.18 0.18 0.21 0.09 0.09 0.09 0.21 0.14 0.14 0.25 0.40 0.47 0.31 0.31 0.46 0.46 0.57 0.57 0.63 0.57 0.58 0.58 0.59 0.64 0.64 0.66 0.53 0.38 0.38 0.33 0.53 0.63 0.62 0.62 0.80 0.63 0.41 0.41 0.44 0.38 0.40 0.40 0.45 0.39 0.39 0.33 0.52 0.62 0.62 0.63 0.62 0.71 0.53 0.53 0.48 0.45 0.49 0.49 0.86 0.98 0.98 0.98 0.77 0.62 0.62 0.30 0.21 0.31 0.31 0.26 0.15
0.01 0.03 0.05 0.06 0.05 0.05 0.22 0.23 0.19 0.19 0.17 0.15 0.16 0.16 0.15 0.21 0.21 0.19 0.15 0.10 0.10 0.06 0.12 0.21 0.24 0.24 0.20 0.21 0.25 0.25 0.22 0.13 0.21 0.21 0.25 0.18 0.18 0.11 0.15 0.19 0.19 0.13 0.20 0.23 0.35 0.35 0.58 0.51 0.38 0.38 0.41 0.70 0.75 0.75 0.71 0.69 0.69 0.59 0.54 0.34 0.34 0.36 0.52 0.60 0.70 0.70 0.79 0.80 0.55 0.55 0.55 0.43 0.46 0.46 0.41 0.40 0.40 0.37 0.36 0.63 0.63 0.64 0.67 0.74 0.70 0.70 0.41 0.47 0.49 0.49 0.51 0.79 0.84 0.84 0.65 0.57 0.57 0.47 0.30 0.39 0.39 0.35 0.25
0.02 0.03 0.04 0.07 0.09 0.09 0.28 0.36 0.29 0.29 0.18 0.18 0.20 0.20 0.22 0.20 0.20 0.21 0.19 0.16 0.16 0.08 0.09 0.13 0.18 0.18 0.17 0.19 0.25 0.25 0.21 0.11 0.20 0.20 0.28 0.22 0.22 0.12 0.11 0.18 0.18 0.26 0.17 0.15 0.44 0.44 0.50 0.49 0.24 0.24 0.22 0.60 1.05 1.05 0.93 0.92 0.92 0.84 0.51 0.44 0.44 0.38 0.40 0.66 0.73 0.73 0.79 0.76 0.73 0.73 0.62 0.50 0.43 0.43 0.46 0.44 0.44 0.39 0.42 0.47 0.47 0.72 0.68 0.76 0.70 0.70 0.59 0.38 0.46 0.46 0.40 0.51 0.62 0.62 0.56 0.49 0.49 0.48 0.46 0.41 0.41 0.35 0.29
0.02 0.03 0.06 0.07 0.10 0.10 0.31 0.49 0.55 0.55 0.33 0.16 0.22 0.22 0.16 0.17 0.17 0.19 0.19 0.19 0.19 0.16 0.12 0.11 0.12 0.12 0.17 0.19 0.21 0.21 0.17 0.11 0.18 0.18 0.27 0.34 0.34 0.19 0.14 0.24 0.24 0.31 0.39 0.37 0.60 0.60 0.63 0.71 0.26 0.26 0.19 0.17 0.41 0.41 1.15 1.09 1.09 0.75 0.53 0.42 0.42 0.43 0.46 0.52 0.68 0.68 0.75 0.74 0.70 0.70 0.66 0.54 0.49 0.49 0.45 0.54 0.54 0.41 0.46 0.47 0.47 0.55 0.69 0.71 0.63 0.63 0.56 0.46 0.40 0.40 0.37 0.39 0.48 0.48 0.47 0.47 0.47 0.52 0.55 0.62 0.62 0.52 0.33
0.03 0.04 0.09 0.10 0.11 0.11 0.18 0.47 0.66 0.66 0.64 0.21 0.17 0.17 0.12 0.15 0.15 0.20 0.19 0.17 0.17 0.16 0.16 0.16 0.17 0.17 0.22 0.19 0.18 0.18 0.15 0.11 0.17 0.17 0.26 0.32 0.32 0.15 0.12 0.23 0.23 0.32 0.44 0.41 0.39 0.39 0.50 0.53 0.35 0.35 0.25 0.21 0.16 0.16 0.42 1.14 1.14 0.86 0.81 0.55 0.55 0.46 0.58 0.51 0.65 0.65 0.72 0.73 0.70 0.70 0.66 0.56 0.52 0.52 0.48 0.54 0.54 0.56 0.48 0.54 0.54 0.55 0.61 0.62 0.52 0.52 0.48 0.50 0.44 0.44 0.44 0.36 0.40 0.40 0.40 0.44 0.44 0.47 0.61 0.71 0.71 0.59 0.49